Weather History for KRSN - January, 2013

Change the Weather History Date:

Thursday, January 17, 2013

  Actual Average Record
Temperature  
Mean Temperature 44 °F -  
Max Temperature 57 °F 55 °F 86 °F (2002)
Min Temperature 31 °F 33 °F 10 °F (1982)
Degree Days  
Heating Degree Days 21    
Moisture  
Dew Point 31 °F    
Average Humidity 70    
Maximum Humidity 100    
Minimum Humidity 37    
Precipitation  
Precipitation 0.00 in - - ()
Sea Level Pressure  
Sea Level Pressure 30.35 in    
Wind  
Wind Speed 3 mph (NNW)    
Max Wind Speed 15 mph    
Max Gust Speed 18 mph    
Visibility 10 miles    
Events      
Averages and records for this station are not official NWS values.
T = Trace of Precipitation, MM = Missing Value Source: NWS Daily Summary

Daily Weather History Graph

Daily Weather History Graph

Search for Another Location

Airport or City:

Trip Planner

Search our weather history database for the weather conditions in past years. The results will help you decide how hot, cold, wet, or windy it might be!

Date:

Astronomy

Jan. 17, 2013 Rise Set
Actual Time 7:11 AM CST 5:29 PM CST
Civil Twilight 6:45 AM CST 5:56 PM CST
Nautical Twilight 6:15 AM CST 6:26 PM CST
Astronomical Twilight 5:45 AM CST 6:55 PM CST
Moon 10:43 AM CST (1/17) 11:55 PM CST (1/17)
Length of Visible Light 11h 10m
Length of Day
10h 17m
Waxing Crescent, 38% of the Moon is Illuminated
Jan 17
Waxing Crescent
Jan 18
First Quarter
Jan 26
Full
Feb 3
Last Quarter
Feb 10
New

Hourly Weather History & Observations

Time (CST) Temp. Windchill Dew Point Humidity Pressure Visibility Wind Dir Wind Speed Gust Speed Precip Events Conditions
12:15 AM 36.0 °F - 36.0 °F 100% 30.23 in 4.0 mi Calm Calm - N/A   Scattered Clouds
12:35 AM 35.4 °F - 35.4 °F 100% 30.24 in 5.0 mi Calm Calm - N/A   Clear
12:55 AM 35.2 °F 32.4 °F 35.2 °F 100% 30.23 in 10.0 mi West 3.5 mph - N/A   Scattered Clouds
1:15 AM 34.9 °F - 34.9 °F 100% 30.24 in 10.0 mi Calm Calm - N/A   Scattered Clouds
1:35 AM 34.7 °F - 34.7 °F 100% 30.25 in 10.0 mi Calm Calm - N/A   Clear
1:55 AM 34.9 °F 30.8 °F 31.8 °F 89% 30.25 in 10.0 mi WNW 4.6 mph - N/A   Clear
2:15 AM 34.7 °F 31.8 °F 30.2 °F 84% 30.25 in 10.0 mi NW 3.5 mph - N/A   Clear
2:35 AM 34.0 °F 29.8 °F 29.8 °F 85% 30.25 in 10.0 mi WNW 4.6 mph - N/A   Scattered Clouds
2:55 AM 33.8 °F 30.8 °F 29.3 °F 84% 30.25 in 10.0 mi NW 3.5 mph - N/A   Scattered Clouds
3:15 AM 33.4 °F 30.4 °F 28.9 °F 84% 30.26 in 10.0 mi NW 3.5 mph - N/A   Clear
3:35 AM 33.8 °F 28.6 °F 28.0 °F 79% 30.26 in 10.0 mi NW 5.8 mph - N/A   Clear
3:55 AM 33.8 °F 28.6 °F 27.7 °F 78% 30.26 in 10.0 mi NW 5.8 mph - N/A   Clear
4:15 AM 33.8 °F - 27.7 °F 78% 30.26 in 10.0 mi Calm Calm - N/A   Clear
4:35 AM 32.9 °F - 27.9 °F 82% 30.27 in 10.0 mi Calm Calm - N/A   Clear
4:55 AM 32.0 °F - 27.9 °F 85% 30.27 in 10.0 mi Calm Calm - N/A   Clear
5:15 AM 32.0 °F - 28.0 °F 85% 30.27 in 10.0 mi Calm Calm - N/A   Clear
5:35 AM 32.0 °F - 27.9 °F 85% 30.27 in 10.0 mi Calm Calm - N/A   Clear
5:55 AM 31.3 °F 27.9 °F 28.4 °F 89% 30.28 in 10.0 mi West 3.5 mph - N/A   Clear
6:15 AM 32.2 °F 27.7 °F 26.8 °F 80% 30.29 in 10.0 mi WNW 4.6 mph - N/A   Clear
6:35 AM 33.1 °F 30.0 °F 25.5 °F 74% 30.29 in 10.0 mi WNW 3.5 mph - N/A   Clear
6:55 AM 33.1 °F 30.0 °F 25.5 °F 74% 30.29 in 10.0 mi WNW 3.5 mph - N/A   Clear
7:15 AM 32.5 °F - 25.5 °F 75% 30.31 in 10.0 mi Calm Calm - N/A   Clear
7:35 AM 32.9 °F 29.8 °F 25.7 °F 75% 30.31 in 10.0 mi NW 3.5 mph - N/A   Clear
7:55 AM 34.0 °F 31.0 °F 25.7 °F 72% 30.32 in 10.0 mi NW 3.5 mph - N/A   Clear
8:15 AM 35.6 °F 31.7 °F 25.3 °F 66% 30.33 in 10.0 mi WNW 4.6 mph - N/A   Clear
8:55 AM 38.1 °F 33.7 °F 25.3 °F 60% 30.34 in 10.0 mi NNW 5.8 mph - N/A   Clear
9:15 AM 39.4 °F 36.1 °F 25.3 °F 57% 30.36 in 10.0 mi NNW 4.6 mph - N/A   Clear
9:55 AM 43.5 °F 40.9 °F 25.7 °F 50% 30.38 in 10.0 mi NW 4.6 mph - N/A   Clear
10:15 AM 45.5 °F 41.8 °F 24.6 °F 44% 30.38 in 10.0 mi NNW 6.9 mph - N/A   Clear
10:35 AM 46.8 °F - 24.3 °F 41% 30.38 in 10.0 mi NNW 9.2 mph - N/A   Clear
10:55 AM 48.4 °F - 24.8 °F 40% 30.38 in 10.0 mi NNW 5.8 mph - N/A   Clear
11:15 AM 49.6 °F - 25.7 °F 39% 30.38 in 10.0 mi NW 8.1 mph - N/A   Clear
11:35 AM 50.9 °F - 25.7 °F 38% 30.37 in 10.0 mi North 5.8 mph - N/A   Clear
11:55 AM 50.7 °F - 25.9 °F 38% 30.37 in 10.0 mi NNW 8.1 mph - N/A   Clear
12:15 PM 51.8 °F - 26.4 °F 37% 30.36 in 10.0 mi WNW 4.6 mph - N/A   Clear
12:35 PM 52.7 °F - 28.8 °F 40% 30.35 in 10.0 mi North 10.4 mph 16.1 mph N/A   Clear
12:55 PM 53.1 °F - 29.3 °F 40% 30.34 in 10.0 mi NNW 9.2 mph - N/A   Clear
1:15 PM 54.0 °F - 30.6 °F 41% 30.34 in 10.0 mi North 10.4 mph - N/A   Clear
1:35 PM 54.5 °F - 30.4 °F 40% 30.34 in 10.0 mi North 9.2 mph - N/A   Clear
1:55 PM 55.0 °F - 30.9 °F 40% 30.34 in 10.0 mi North 6.9 mph - N/A   Clear
2:15 PM 55.8 °F - 31.3 °F 39% 30.34 in 10.0 mi North 6.9 mph - N/A   Clear
2:35 PM 56.7 °F - 31.5 °F 38% 30.34 in 10.0 mi NNW 6.9 mph - N/A   Clear
2:55 PM 56.5 °F - 31.6 °F 39% 30.34 in 10.0 mi North 15.0 mph 18.4 mph N/A   Clear
3:15 PM 57.2 °F - 31.5 °F 38% 30.36 in 10.0 mi North 10.4 mph - N/A   Clear
3:35 PM 56.7 °F - 30.7 °F 37% 30.37 in 10.0 mi NNW 9.2 mph 18.4 mph N/A   Clear
3:55 PM 56.7 °F - 31.6 °F 39% 30.37 in 10.0 mi North 9.2 mph - N/A   Clear
4:35 PM 55.6 °F - 32.0 °F 41% 30.39 in 10.0 mi North 6.9 mph - N/A   Clear
4:55 PM 54.7 °F - 32.0 °F 42% 30.40 in 10.0 mi North 4.6 mph - N/A   Clear
5:15 PM 53.1 °F - 32.4 °F 45% 30.41 in 10.0 mi North 5.8 mph - N/A   Clear
5:35 PM 49.6 °F - 34.3 °F 56% 30.42 in 10.0 mi Calm Calm - N/A   Clear
5:55 PM 45.7 °F - 37.4 °F 73% 30.42 in 10.0 mi Calm Calm - N/A   Clear
6:15 PM 44.1 °F - 36.3 °F 74% 30.43 in 10.0 mi Calm Calm - N/A   Clear
6:35 PM 42.4 °F - 37.6 °F 83% 30.43 in 10.0 mi Calm Calm - N/A   Clear
6:55 PM 41.0 °F - 36.9 °F 85% 30.44 in 10.0 mi Calm Calm - N/A   Clear
7:15 PM 40.1 °F - 37.6 °F 91% 30.44 in 10.0 mi Calm Calm - N/A   Clear
7:35 PM 38.8 °F - 37.6 °F 95% 30.45 in 10.0 mi Calm Calm - N/A   Clear
8:15 PM 37.6 °F - 37.6 °F 100% 30.46 in 10.0 mi Calm Calm - N/A   Clear
8:35 PM 36.9 °F - 36.9 °F 100% 30.46 in 10.0 mi Calm Calm - N/A   Clear
8:55 PM 36.1 °F - 36.1 °F 100% 30.47 in 10.0 mi Calm Calm - N/A   Clear
9:15 PM 36.0 °F - 36.0 °F 100% 30.48 in 10.0 mi Calm Calm - N/A   Clear
9:35 PM 35.2 °F - 35.2 °F 100% 30.49 in 10.0 mi Calm Calm - N/A   Clear
9:55 PM 36.0 °F - 36.0 °F 100% 30.50 in 10.0 mi Calm Calm - N/A   Clear
11:15 PM 34.3 °F - 34.3 °F 100% 30.52 in 10.0 mi Calm Calm - N/A   Clear
11:35 PM 34.2 °F - 34.2 °F 100% 30.53 in 10.0 mi Calm Calm - N/A   Clear
11:55 PM 33.4 °F - 33.4 °F 100% 30.53 in 10.0 mi Calm Calm - N/A   Clear